Time,TemperatureF,DewpointF,PressureIn,WindDirection,WindDirectionDegrees,WindSpeedMPH,WindSpeedGustMPH,Humidity,HourlyPrecipIn,Conditions,Clouds,dailyrainin,SoftwareType,DateUTC
2013-08-05 00:01:00,56.7,51.3,30.03,North,358,0.0,0.0,82,0.00,,,0.00,WUHU216DAVISVP2,2013-08-05 04:01:00,
2013-08-05 00:02:00,56.7,51.3,30.03,North,358,0.0,0.0,82,0.00,,,0.00,WUHU216DAVISVP2,2013-08-05 04:02:00,
2013-08-05 00:07:00,56.6,51.2,30.03,North,359,0.0,0.0,82,0.00,,,0.00,WUHU216DAVISVP2,2013-08-05 04:07:00,
2013-08-05 00:12:00,56.4,51.3,30.03,North,358,0.0,0.0,83,0.00,,,0.00,WUHU216DAVISVP2,2013-08-05 04:12:00,
2013-08-05 00:17:00,56.3,51.2,30.03,North,359,0.0,0.0,83,0.00,,,0.00,WUHU216DAVISVP2,2013-08-05 04:17:00,
2013-08-05 00:22:00,56.2,51.1,30.04,North,358,0.0,0.0,83,0.00,,,0.00,WUHU216DAVISVP2,2013-08-05 04:22:00,
2013-08-05 00:27:00,56.2,51.1,30.04,North,359,0.0,0.0,83,0.00,,,0.00,WUHU216DAVISVP2,2013-08-05 04:27:00,
2013-08-05 00:32:00,56.1,51.0,30.04,North,358,0.0,0.0,83,0.00,,,0.00,WUHU216DAVISVP2,2013-08-05 04:32:00,
2013-08-05 00:37:00,56.2,51.1,30.04,North,359,0.0,0.0,83,0.00,,,0.00,WUHU216DAVISVP2,2013-08-05 04:37:00,
2013-08-05 00:42:00,56.2,51.1,30.04,North,358,0.0,0.0,83,0.00,,,0.00,WUHU216DAVISVP2,2013-08-05 04:42:00,
2013-08-05 00:47:00,56.1,51.3,30.04,North,358,0.0,0.0,84,0.00,,,0.00,WUHU216DAVISVP2,2013-08-05 04:47:00,
2013-08-05 00:52:00,56.0,51.2,30.04,North,358,0.0,0.0,84,0.00,,,0.00,WUHU216DAVISVP2,2013-08-05 04:52:00,
2013-08-05 00:57:00,55.8,51.4,30.04,North,359,0.0,0.0,85,0.00,,,0.00,WUHU216DAVISVP2,2013-08-05 04:57:00,
2013-08-05 01:02:00,55.8,51.4,30.04,North,358,0.0,0.0,85,0.00,,,0.00,WUHU216DAVISVP2,2013-08-05 05:02:00,
2013-08-05 01:07:00,55.8,51.7,30.03,North,359,0.0,0.0,86,0.00,,,0.00,WUHU216DAVISVP2,2013-08-05 05:07:00,
2013-08-05 01:12:00,55.8,51.4,30.03,North,359,0.0,0.0,85,0.00,,,0.00,WUHU216DAVISVP2,2013-08-05 05:12:00,
2013-08-05 01:17:00,55.8,51.4,30.03,North,359,0.0,0.0,85,0.00,,,0.00,WUHU216DAVISVP2,2013-08-05 05:17:00,
2013-08-05 01:22:00,55.8,51.7,30.03,North,358,0.0,0.0,86,0.00,,,0.00,WUHU216DAVISVP2,2013-08-05 05:22:00,
2013-08-05 01:27:00,55.7,51.6,30.03,North,358,0.0,0.0,86,0.00,,,0.00,WUHU216DAVISVP2,2013-08-05 05:27:00,
2013-08-05 01:32:00,55.6,51.5,30.03,North,359,0.0,0.0,86,0.00,,,0.00,WUHU216DAVISVP2,2013-08-05 05:32:00,
2013-08-05 01:37:00,55.6,51.8,30.03,North,358,0.0,1.0,87,0.00,,,0.00,WUHU216DAVISVP2,2013-08-05 05:37:00,
2013-08-05 01:42:00,55.6,51.8,30.03,North,358,0.0,1.0,87,0.00,,,0.00,WUHU216DAVISVP2,2013-08-05 05:42:00,
2013-08-05 01:47:00,55.5,51.7,30.03,North,359,0.0,1.0,87,0.00,,,0.00,WUHU216DAVISVP2,2013-08-05 05:47:00,
2013-08-05 01:52:00,55.6,51.8,30.03,North,359,0.0,0.0,87,0.00,,,0.00,WUHU216DAVISVP2,2013-08-05 05:52:00,
2013-08-05 01:57:00,55.8,52.0,30.03,North,358,0.0,0.0,87,0.00,,,0.00,WUHU216DAVISVP2,2013-08-05 05:57:00,
2013-08-05 02:02:00,55.9,52.1,30.03,North,359,0.0,0.0,87,0.00,,,0.00,WUHU216DAVISVP2,2013-08-05 06:02:00,
2013-08-05 02:07:00,56.0,52.2,30.03,North,358,0.0,0.0,87,0.00,,,0.00,WUHU216DAVISVP2,2013-08-05 06:07:00,
2013-08-05 02:12:00,56.1,52.3,30.03,North,359,0.0,0.0,87,0.00,,,0.00,WUHU216DAVISVP2,2013-08-05 06:12:00,
2013-08-05 02:17:00,56.3,52.5,30.03,North,358,0.0,0.0,87,0.00,,,0.00,WUHU216DAVISVP2,2013-08-05 06:17:00,
2013-08-05 02:22:00,56.4,52.6,30.03,North,359,0.0,0.0,87,0.00,,,0.00,WUHU216DAVISVP2,2013-08-05 06:22:00,
2013-08-05 02:27:00,56.6,52.5,30.03,North,359,0.0,0.0,86,0.00,,,0.00,WUHU216DAVISVP2,2013-08-05 06:27:00,
2013-08-05 02:32:00,56.8,52.7,30.03,North,358,0.0,0.0,86,0.00,,,0.00,WUHU216DAVISVP2,2013-08-05 06:32:00,
2013-08-05 02:37:00,56.8,52.7,30.03,North,358,0.0,0.0,86,0.00,,,0.00,WUHU216DAVISVP2,2013-08-05 06:37:00,
2013-08-05 02:42:00,56.8,52.7,30.03,North,359,0.0,0.0,86,0.00,,,0.00,WUHU216DAVISVP2,2013-08-05 06:42:00,
2013-08-05 02:47:00,56.9,53.1,30.03,North,359,0.0,0.0,87,0.00,,,0.00,WUHU216DAVISVP2,2013-08-05 06:47:00,
2013-08-05 02:52:00,57.0,53.5,30.02,North,358,0.0,0.0,88,0.00,,,0.00,WUHU216DAVISVP2,2013-08-05 06:52:00,
2013-08-05 02:57:00,57.0,53.5,30.02,North,359,0.0,0.0,88,0.00,,,0.00,WUHU216DAVISVP2,2013-08-05 06:57:00,
2013-08-05 03:02:00,57.3,53.8,30.03,WSW,256,0.0,1.0,88,0.00,,,0.00,WUHU216DAVISVP2,2013-08-05 07:02:00,
2013-08-05 03:07:00,57.4,53.6,30.03,WSW,256,0.0,1.0,87,0.00,,,0.00,WUHU216DAVISVP2,2013-08-05 07:07:00,
2013-08-05 03:12:00,57.8,53.3,30.03,SW,219,1.0,2.0,85,0.00,,,0.00,WUHU216DAVISVP2,2013-08-05 07:12:00,
2013-08-05 03:17:00,58.0,53.5,30.02,SE,129,0.0,2.0,85,0.00,,,0.00,WUHU216DAVISVP2,2013-08-05 07:17:00,
2013-08-05 03:22:00,58.0,53.2,30.02,SSE,167,0.0,2.0,84,0.00,,,0.00,WUHU216DAVISVP2,2013-08-05 07:22:00,
2013-08-05 03:27:00,58.1,53.0,30.02,SSE,159,0.0,2.0,83,0.00,,,0.00,WUHU216DAVISVP2,2013-08-05 07:27:00,
2013-08-05 03:32:00,58.2,53.4,30.02,SSE,159,0.0,1.0,84,0.00,,,0.00,WUHU216DAVISVP2,2013-08-05 07:32:00,
2013-08-05 03:37:00,58.1,53.0,30.02,SSE,159,0.0,1.0,83,0.00,,,0.00,WUHU216DAVISVP2,2013-08-05 07:37:00,
2013-08-05 03:42:00,58.0,52.5,30.02,SSW,203,0.0,1.0,82,0.00,,,0.00,WUHU216DAVISVP2,2013-08-05 07:42:00,
2013-08-05 03:47:00,58.4,53.3,30.03,SW,229,0.0,0.0,83,0.00,,,0.00,WUHU216DAVISVP2,2013-08-05 07:47:00,
2013-08-05 03:52:00,58.4,53.3,30.02,SW,229,0.0,0.0,83,0.00,,,0.00,WUHU216DAVISVP2,2013-08-05 07:52:00,
2013-08-05 03:57:00,58.3,53.2,30.03,SW,229,0.0,0.0,83,0.00,,,0.00,WUHU216DAVISVP2,2013-08-05 07:57:00,
2013-08-05 04:02:00,58.2,53.4,30.03,SW,229,0.0,0.0,84,0.00,,,0.00,WUHU216DAVISVP2,2013-08-05 08:02:00,
2013-08-05 04:07:00,58.1,53.0,30.03,SW,229,0.0,0.0,83,0.00,,,0.00,WUHU216DAVISVP2,2013-08-05 08:07:00,
2013-08-05 04:12:00,58.0,53.2,30.02,SW,229,0.0,0.0,84,0.00,,,0.00,WUHU216DAVISVP2,2013-08-05 08:12:00,
2013-08-05 04:17:00,57.9,52.8,30.02,SSW,205,0.0,0.0,83,0.00,,,0.00,WUHU216DAVISVP2,2013-08-05 08:17:00,
2013-08-05 04:22:00,57.9,53.1,30.02,SSW,205,0.0,0.0,84,0.00,,,0.00,WUHU216DAVISVP2,2013-08-05 08:22:00,
2013-08-05 04:27:00,57.8,53.0,30.02,SSW,206,0.0,0.0,84,0.00,,,0.00,WUHU216DAVISVP2,2013-08-05 08:27:00,
2013-08-05 04:32:00,57.6,52.8,30.02,SSW,206,0.0,0.0,84,0.00,,,0.00,WUHU216DAVISVP2,2013-08-05 08:32:00,
2013-08-05 04:37:00,57.5,52.7,30.02,SSW,206,0.0,0.0,84,0.00,,,0.00,WUHU216DAVISVP2,2013-08-05 08:37:00,
2013-08-05 04:42:00,57.4,52.9,30.02,SSW,206,0.0,0.0,85,0.00,,,0.00,WUHU216DAVISVP2,2013-08-05 08:42:00,
2013-08-05 04:47:00,57.2,52.7,30.02,SSW,206,0.0,0.0,85,0.00,,,0.00,WUHU216DAVISVP2,2013-08-05 08:47:00,
2013-08-05 04:52:00,57.2,53.0,30.01,SSW,205,0.0,0.0,86,0.00,,,0.00,WUHU216DAVISVP2,2013-08-05 08:52:00,
2013-08-05 04:57:00,57.3,52.2,30.02,SSW,206,0.0,0.0,83,0.00,,,0.00,WUHU216DAVISVP2,2013-08-05 08:57:00,
2013-08-05 05:03:00,57.5,53.0,30.02,SSW,205,0.0,0.0,85,0.00,,,0.00,WUHU216DAVISVP2,2013-08-05 09:03:00,
2013-08-05 05:07:00,57.5,52.7,30.02,SSW,205,0.0,0.0,84,0.00,,,0.00,WUHU216DAVISVP2,2013-08-05 09:07:00,
2013-08-05 05:13:00,57.5,52.7,30.02,SSW,206,0.0,0.0,84,0.00,,,0.00,WUHU216DAVISVP2,2013-08-05 09:13:00,
2013-08-05 05:18:00,57.5,52.7,30.01,SSW,206,0.0,0.0,84,0.00,,,0.00,WUHU216DAVISVP2,2013-08-05 09:18:00,
2013-08-05 05:23:00,57.4,52.9,30.01,SSW,205,0.0,0.0,85,0.00,,,0.00,WUHU216DAVISVP2,2013-08-05 09:23:00,
2013-08-05 05:28:00,57.4,52.6,30.01,SSW,206,0.0,0.0,84,0.00,,,0.00,WUHU216DAVISVP2,2013-08-05 09:28:00,
2013-08-05 05:33:00,57.4,52.3,30.02,SSW,205,0.0,0.0,83,0.00,,,0.00,WUHU216DAVISVP2,2013-08-05 09:33:00,
2013-08-05 05:38:00,57.4,52.3,30.02,SSW,206,0.0,0.0,83,0.00,,,0.00,WUHU216DAVISVP2,2013-08-05 09:38:00,
2013-08-05 05:44:00,57.5,52.7,30.02,SSW,206,0.0,0.0,84,0.00,,,0.00,WUHU216DAVISVP2,2013-08-05 09:44:00,
2013-08-05 05:49:00,57.4,52.3,30.02,SSW,205,0.0,0.0,83,0.00,,,0.00,WUHU216DAVISVP2,2013-08-05 09:49:00,
2013-08-05 05:53:00,57.5,52.7,30.02,SSW,206,0.0,0.0,84,0.00,,,0.00,WUHU216DAVISVP2,2013-08-05 09:53:00,
2013-08-05 05:59:00,57.5,52.7,30.02,SSW,205,0.0,0.0,84,0.00,,,0.00,WUHU216DAVISVP2,2013-08-05 09:59:00,
2013-08-05 06:04:00,57.4,52.6,30.03,SSW,205,0.0,0.0,84,0.00,,,0.00,WUHU216DAVISVP2,2013-08-05 10:04:00,
2013-08-05 06:09:00,57.4,52.9,30.03,SSW,205,0.0,0.0,85,0.00,,,0.00,WUHU216DAVISVP2,2013-08-05 10:09:00,
2013-08-05 06:15:00,57.2,52.1,30.03,SSW,206,0.0,0.0,83,0.00,,,0.00,WUHU216DAVISVP2,2013-08-05 10:15:00,
2013-08-05 06:20:00,57.1,52.6,30.03,SSW,205,0.0,0.0,85,0.00,,,0.00,WUHU216DAVISVP2,2013-08-05 10:20:00,
2013-08-05 06:25:00,57.0,52.2,30.03,SSW,205,0.0,0.0,84,0.00,,,0.00,WUHU216DAVISVP2,2013-08-05 10:25:00,
2013-08-05 06:30:00,57.0,52.2,30.03,SSW,205,0.0,0.0,84,0.00,,,0.00,WUHU216DAVISVP2,2013-08-05 10:30:00,
2013-08-05 06:36:00,56.9,51.5,30.03,SSW,206,0.0,0.0,82,0.00,,,0.00,WUHU216DAVISVP2,2013-08-05 10:36:00,
2013-08-05 06:40:00,56.8,51.4,30.03,SSW,205,0.0,0.0,82,0.00,,,0.00,WUHU216DAVISVP2,2013-08-05 10:40:00,
2013-08-05 06:46:00,56.6,51.2,30.03,SSW,205,0.0,0.0,82,0.00,,,0.00,WUHU216DAVISVP2,2013-08-05 10:46:00,
2013-08-05 06:51:00,56.4,51.0,30.03,SSW,205,0.0,0.0,82,0.00,,,0.00,WUHU216DAVISVP2,2013-08-05 10:51:00,
2013-08-05 06:56:00,56.1,51.0,30.03,SSW,205,0.0,0.0,83,0.00,,,0.00,WUHU216DAVISVP2,2013-08-05 10:56:00,
2013-08-05 07:01:00,55.8,50.7,30.02,SSW,206,0.0,0.0,83,0.00,,,0.00,WUHU216DAVISVP2,2013-08-05 11:01:00,
2013-08-05 07:06:00,55.7,51.3,30.02,SSW,205,0.0,0.0,85,0.00,,,0.00,WUHU216DAVISVP2,2013-08-05 11:06:00,
2013-08-05 07:11:00,55.7,50.9,30.02,SSW,206,0.0,0.0,84,0.00,,,0.00,WUHU216DAVISVP2,2013-08-05 11:11:00,
2013-08-05 07:17:00,55.7,50.9,30.03,SSW,205,0.0,0.0,84,0.00,,,0.00,WUHU216DAVISVP2,2013-08-05 11:17:00,
2013-08-05 07:22:00,55.6,50.9,30.03,SSW,205,0.0,0.0,84,0.00,,,0.00,WUHU216DAVISVP2,2013-08-05 11:22:00,
2013-08-05 07:27:00,55.6,50.8,30.03,SSW,205,0.0,0.0,84,0.00,,,0.00,WUHU216DAVISVP2,2013-08-05 11:27:00,
2013-08-05 07:32:00,55.7,50.9,30.03,SSW,206,0.0,0.0,84,0.00,,,0.00,WUHU216DAVISVP2,2013-08-05 11:32:00,
2013-08-05 07:37:00,56.0,50.9,30.03,SSW,206,0.0,0.0,83,0.00,,,0.00,WUHU216DAVISVP2,2013-08-05 11:37:00,
2013-08-05 07:43:00,56.7,51.0,30.03,SSW,207,0.0,0.0,81,0.00,,,0.00,WUHU216DAVISVP2,2013-08-05 11:43:00,
2013-08-05 07:48:00,57.3,51.6,30.03,SSW,207,0.0,0.0,81,0.00,,,0.00,WUHU216DAVISVP2,2013-08-05 11:48:00,
2013-08-05 07:53:00,57.7,52.0,30.03,SSW,207,0.0,0.0,81,0.00,,,0.00,WUHU216DAVISVP2,2013-08-05 11:53:00,
2013-08-05 07:58:00,58.1,52.3,30.03,SSW,207,0.0,0.0,81,0.00,,,0.00,WUHU216DAVISVP2,2013-08-05 11:58:00,
2013-08-05 08:04:00,58.4,52.6,30.03,SSW,207,0.0,0.0,81,0.00,,,0.00,WUHU216DAVISVP2,2013-08-05 12:04:00,
2013-08-05 08:09:00,58.6,51.8,30.03,SSW,206,0.0,0.0,78,0.00,,,0.00,WUHU216DAVISVP2,2013-08-05 12:09:00,
2013-08-05 08:15:00,59.1,52.3,30.03,SSW,205,0.0,0.0,78,0.00,,,0.00,WUHU216DAVISVP2,2013-08-05 12:15:00,
2013-08-05 08:20:00,59.7,51.9,30.03,SSW,205,0.0,2.0,75,0.00,,,0.00,WUHU216DAVISVP2,2013-08-05 12:20:00,
2013-08-05 08:25:00,60.1,51.5,30.03,SSW,203,0.0,2.0,73,0.00,,,0.00,WUHU216DAVISVP2,2013-08-05 12:25:00,
2013-08-05 08:30:00,60.5,52.3,30.03,SSW,203,0.0,1.0,74,0.00,,,0.00,WUHU216DAVISVP2,2013-08-05 12:30:00,
2013-08-05 08:35:00,60.7,52.8,30.02,SSW,203,0.0,1.0,75,0.00,,,0.00,WUHU216DAVISVP2,2013-08-05 12:35:00,
2013-08-05 08:40:00,61.0,52.8,30.02,SSW,203,0.0,1.0,74,0.00,,,0.00,WUHU216DAVISVP2,2013-08-05 12:40:00,
2013-08-05 08:45:00,61.2,53.0,30.02,SSW,203,0.0,1.0,74,0.00,,,0.00,WUHU216DAVISVP2,2013-08-05 12:45:00,
2013-08-05 08:50:00,61.5,52.9,30.02,SSW,203,0.0,1.0,73,0.00,,,0.00,WUHU216DAVISVP2,2013-08-05 12:50:00,
2013-08-05 08:55:00,61.8,52.8,30.02,SSW,203,0.0,1.0,72,0.00,,,0.00,WUHU216DAVISVP2,2013-08-05 12:55:00,
2013-08-05 09:01:00,62.2,53.2,30.02,SSW,198,0.0,1.0,72,0.00,,,0.00,WUHU216DAVISVP2,2013-08-05 13:01:00,
2013-08-05 09:06:00,62.6,52.8,30.02,SW,217,0.0,1.0,70,0.00,,,0.00,WUHU216DAVISVP2,2013-08-05 13:06:00,
2013-08-05 09:12:00,63.0,53.2,30.03,SSW,211,0.0,1.0,70,0.00,,,0.00,WUHU216DAVISVP2,2013-08-05 13:12:00,
2013-08-05 09:17:00,63.4,53.2,30.03,SSW,208,0.0,4.0,69,0.00,,,0.00,WUHU216DAVISVP2,2013-08-05 13:17:00,
2013-08-05 09:22:00,63.8,53.6,30.03,South,179,1.0,4.0,69,0.00,,,0.00,WUHU216DAVISVP2,2013-08-05 13:22:00,
2013-08-05 09:27:00,64.1,53.5,30.03,SE,131,2.0,4.0,68,0.00,,,0.00,WUHU216DAVISVP2,2013-08-05 13:27:00,
2013-08-05 09:32:00,64.2,54.0,30.03,SE,127,0.0,4.0,69,0.00,,,0.00,WUHU216DAVISVP2,2013-08-05 13:32:00,
2013-08-05 09:37:00,64.3,53.3,30.02,SSW,203,0.0,3.0,67,0.00,,,0.00,WUHU216DAVISVP2,2013-08-05 13:37:00,
2013-08-05 09:42:00,64.7,53.5,30.03,SE,138,1.0,3.0,67,0.00,,,0.00,WUHU216DAVISVP2,2013-08-05 13:42:00,
2013-08-05 09:47:00,65.4,54.2,30.02,SE,131,0.0,2.0,67,0.00,,,0.00,WUHU216DAVISVP2,2013-08-05 13:47:00,
2013-08-05 09:53:00,66.0,54.3,30.02,ESE,115,0.0,3.0,66,0.00,,,0.00,WUHU216DAVISVP2,2013-08-05 13:53:00,
2013-08-05 09:58:00,66.3,54.2,30.02,SW,225,4.0,4.0,65,0.00,,,0.00,WUHU216DAVISVP2,2013-08-05 13:58:00,
2013-08-05 10:02:00,66.3,54.2,30.02,SSW,195,0.0,5.0,65,0.00,,,0.00,WUHU216DAVISVP2,2013-08-05 14:02:00,
2013-08-05 10:08:00,66.6,54.5,30.02,ESE,113,1.0,5.0,65,0.00,,,0.00,WUHU216DAVISVP2,2013-08-05 14:08:00,
2013-08-05 10:13:00,67.3,55.5,30.02,SSW,203,1.0,5.0,66,0.00,,,0.00,WUHU216DAVISVP2,2013-08-05 14:13:00,
2013-08-05 10:18:00,67.6,55.4,30.02,SSW,197,0.0,5.0,65,0.00,,,0.00,WUHU216DAVISVP2,2013-08-05 14:18:00,
2013-08-05 10:23:00,68.1,55.5,30.02,SSW,208,1.0,4.0,64,0.00,,,0.00,WUHU216DAVISVP2,2013-08-05 14:23:00,
2013-08-05 10:28:00,68.5,55.4,30.01,SSW,205,2.0,4.0,63,0.00,,,0.00,WUHU216DAVISVP2,2013-08-05 14:28:00,
2013-08-05 10:34:00,68.8,56.1,30.01,South,190,1.0,4.0,64,0.00,,,0.00,WUHU216DAVISVP2,2013-08-05 14:34:00,
2013-08-05 10:38:00,68.9,55.8,30.01,South,181,1.0,5.0,63,0.00,,,0.00,WUHU216DAVISVP2,2013-08-05 14:38:00,
2013-08-05 10:43:00,68.8,56.1,30.01,SSW,201,3.0,5.0,64,0.00,,,0.00,WUHU216DAVISVP2,2013-08-05 14:43:00,
2013-08-05 10:49:00,68.5,55.8,30.01,NE,43,0.0,9.0,64,0.00,,,0.00,WUHU216DAVISVP2,2013-08-05 14:49:00,
2013-08-05 10:54:00,68.5,55.8,30.01,SE,126,1.0,9.0,64,0.00,,,0.00,WUHU216DAVISVP2,2013-08-05 14:54:00,
2013-08-05 10:58:00,68.8,56.6,30.01,South,179,3.0,9.0,65,0.00,,,0.00,WUHU216DAVISVP2,2013-08-05 14:58:00,
2013-08-05 11:04:00,68.6,55.9,30.01,SW,219,3.0,9.0,64,0.00,,,0.00,WUHU216DAVISVP2,2013-08-05 15:04:00,
2013-08-05 11:09:00,68.5,55.8,30.00,ESE,110,4.0,7.0,64,0.00,,,0.00,WUHU216DAVISVP2,2013-08-05 15:09:00,
2013-08-05 11:14:00,68.8,56.3,30.00,SW,236,2.0,7.0,64,0.00,,,0.00,WUHU216DAVISVP2,2013-08-05 15:14:00,
2013-08-05 11:19:00,69.0,56.9,30.00,South,169,1.0,7.0,65,0.00,,,0.00,WUHU216DAVISVP2,2013-08-05 15:19:00,
2013-08-05 11:25:00,69.2,56.7,30.00,SSW,212,4.0,7.0,64,0.00,,,0.00,WUHU216DAVISVP2,2013-08-05 15:25:00,
2013-08-05 11:30:00,69.5,57.4,30.00,WSW,256,1.0,7.0,65,0.00,,,0.00,WUHU216DAVISVP2,2013-08-05 15:30:00,
2013-08-05 11:35:00,69.5,55.6,30.00,SSW,204,1.0,7.0,61,0.00,,,0.00,WUHU216DAVISVP2,2013-08-05 15:35:00,
2013-08-05 11:40:00,69.0,54.2,30.00,WSW,245,4.0,9.0,59,0.00,,,0.00,WUHU216DAVISVP2,2013-08-05 15:40:00,
2013-08-05 11:45:00,69.1,56.2,30.00,SE,131,1.0,9.0,63,0.00,,,0.00,WUHU216DAVISVP2,2013-08-05 15:45:00,
2013-08-05 11:50:00,69.6,55.3,30.00,SSW,196,2.0,8.0,60,0.00,,,0.00,WUHU216DAVISVP2,2013-08-05 15:50:00,
2013-08-05 11:55:00,69.7,55.4,30.00,SW,217,3.0,8.0,60,0.00,,,0.00,WUHU216DAVISVP2,2013-08-05 15:55:00,
2013-08-05 12:00:00,69.5,55.6,29.99,SW,216,1.0,8.0,61,0.00,,,0.00,WUHU216DAVISVP2,2013-08-05 16:00:00,
2013-08-05 12:05:00,69.5,56.1,29.99,South,187,4.0,8.0,62,0.00,,,0.00,WUHU216DAVISVP2,2013-08-05 16:05:00,
2013-08-05 12:10:00,69.6,56.0,29.99,WSW,252,2.0,7.0,62,0.00,,,0.00,WUHU216DAVISVP2,2013-08-05 16:10:00,
2013-08-05 12:16:00,69.6,55.1,29.99,SSW,204,2.0,7.0,60,0.00,,,0.00,WUHU216DAVISVP2,2013-08-05 16:16:00,
2013-08-05 12:21:00,69.5,54.2,29.99,West,267,1.0,6.0,58,0.00,,,0.00,WUHU216DAVISVP2,2013-08-05 16:21:00,
2013-08-05 12:26:00,69.5,55.2,29.99,SSW,212,2.0,7.0,60,0.00,,,0.00,WUHU216DAVISVP2,2013-08-05 16:26:00,
2013-08-05 12:31:00,69.6,53.8,29.99,WSW,255,2.0,7.0,57,0.00,,,0.00,WUHU216DAVISVP2,2013-08-05 16:31:00,
2013-08-05 12:37:00,69.7,54.9,29.99,WSW,243,4.0,7.0,59,0.00,,,0.00,WUHU216DAVISVP2,2013-08-05 16:37:00,
2013-08-05 12:42:00,69.7,54.4,29.98,West,280,3.0,6.0,58,0.00,,,0.00,WUHU216DAVISVP2,2013-08-05 16:42:00,
2013-08-05 12:46:00,69.8,54.0,29.98,SSW,195,3.0,6.0,57,0.00,,,0.00,WUHU216DAVISVP2,2013-08-05 16:46:00,
2013-08-05 12:52:00,69.7,54.9,29.98,SW,222,3.0,8.0,59,0.00,,,0.00,WUHU216DAVISVP2,2013-08-05 16:52:00,
2013-08-05 12:57:00,69.8,55.0,29.98,SSW,201,1.0,8.0,59,0.00,,,0.00,WUHU216DAVISVP2,2013-08-05 16:57:00,
2013-08-05 13:02:00,70.1,55.7,29.97,WSW,256,2.0,8.0,60,0.00,,,0.00,WUHU216DAVISVP2,2013-08-05 17:02:00,
2013-08-05 13:07:00,70.2,53.9,29.97,SW,229,3.0,8.0,56,0.00,,,0.00,WUHU216DAVISVP2,2013-08-05 17:07:00,
2013-08-05 13:12:00,70.2,53.4,29.97,SW,232,2.0,6.0,55,0.00,,,0.00,WUHU216DAVISVP2,2013-08-05 17:12:00,
2013-08-05 13:17:00,69.9,53.6,29.97,West,271,2.0,6.0,56,0.00,,,0.00,WUHU216DAVISVP2,2013-08-05 17:17:00,
2013-08-05 13:22:00,69.7,52.4,29.96,SW,231,2.0,5.0,54,0.00,,,0.00,WUHU216DAVISVP2,2013-08-05 17:22:00,
2013-08-05 13:27:00,69.8,53.0,29.96,SW,236,3.0,6.0,55,0.00,,,0.00,WUHU216DAVISVP2,2013-08-05 17:27:00,
2013-08-05 13:33:00,70.1,53.8,29.96,West,264,1.0,6.0,56,0.00,,,0.00,WUHU216DAVISVP2,2013-08-05 17:33:00,
2013-08-05 13:38:00,70.3,53.5,29.96,West,259,4.0,6.0,55,0.00,,,0.00,WUHU216DAVISVP2,2013-08-05 17:38:00,
2013-08-05 13:43:00,69.9,53.6,29.96,West,263,2.0,7.0,56,0.00,,,0.00,WUHU216DAVISVP2,2013-08-05 17:43:00,
2013-08-05 13:48:00,69.8,53.0,29.96,WSW,243,2.0,7.0,55,0.00,,,0.00,WUHU216DAVISVP2,2013-08-05 17:48:00,
2013-08-05 13:53:00,69.7,53.9,29.95,West,273,0.0,7.0,57,0.00,,,0.00,WUHU216DAVISVP2,2013-08-05 17:53:00,
2013-08-05 13:58:00,70.0,53.7,29.95,West,263,1.0,7.0,56,0.00,,,0.00,WUHU216DAVISVP2,2013-08-05 17:58:00,
2013-08-05 14:04:00,70.5,54.0,29.95,SW,229,3.0,5.0,56,0.00,,,0.00,WUHU216DAVISVP2,2013-08-05 18:04:00,
2013-08-05 14:09:00,70.6,53.6,29.95,SW,231,2.0,5.0,55,0.00,,,0.00,WUHU216DAVISVP2,2013-08-05 18:09:00,
2013-08-05 14:14:00,71.1,54.1,29.95,West,273,0.0,4.0,55,0.00,,,0.00,WUHU216DAVISVP2,2013-08-05 18:14:00,
2013-08-05 14:19:00,71.2,54.3,29.95,South,191,3.0,4.0,55,0.00,,,0.00,WUHU216DAVISVP2,2013-08-05 18:19:00,
2013-08-05 14:24:00,70.9,53.9,29.95,West,273,0.0,5.0,55,0.00,,,0.00,WUHU216DAVISVP2,2013-08-05 18:24:00,
2013-08-05 14:30:00,71.0,55.5,29.96,NNW,346,1.0,5.0,58,0.00,,,0.00,WUHU216DAVISVP2,2013-08-05 18:30:00,
2013-08-05 14:35:00,71.6,55.1,29.96,West,266,1.0,5.0,56,0.00,,,0.00,WUHU216DAVISVP2,2013-08-05 18:35:00,
2013-08-05 14:40:00,71.4,53.4,29.96,WSW,248,4.0,6.0,53,0.00,,,0.00,WUHU216DAVISVP2,2013-08-05 18:40:00,
2013-08-05 14:45:00,70.8,54.5,29.96,West,273,0.0,6.0,56,0.00,,,0.00,WUHU216DAVISVP2,2013-08-05 18:45:00,
2013-08-05 14:50:00,71.2,54.2,29.96,WSW,248,3.0,6.0,55,0.00,,,0.00,WUHU216DAVISVP2,2013-08-05 18:50:00,
2013-08-05 14:55:00,70.8,54.5,29.96,SW,225,2.0,5.0,56,0.00,,,0.00,WUHU216DAVISVP2,2013-08-05 18:55:00,
2013-08-05 15:00:00,70.5,53.6,29.96,West,264,3.0,4.0,55,0.00,,,0.00,WUHU216DAVISVP2,2013-08-05 19:00:00,
2013-08-05 15:05:00,70.4,54.0,29.96,West,267,1.0,4.0,56,0.00,,,0.00,WUHU216DAVISVP2,2013-08-05 19:05:00,
2013-08-05 15:10:00,70.4,54.0,29.96,West,266,0.0,4.0,56,0.00,,,0.00,WUHU216DAVISVP2,2013-08-05 19:10:00,
2013-08-05 15:16:00,70.3,53.4,29.96,WSW,253,2.0,3.0,55,0.00,,,0.00,WUHU216DAVISVP2,2013-08-05 19:16:00,
2013-08-05 15:21:00,69.9,53.5,29.96,West,260,2.0,4.0,56,0.00,,,0.00,WUHU216DAVISVP2,2013-08-05 19:21:00,
2013-08-05 15:26:00,69.5,54.1,29.96,SSW,212,2.0,4.0,58,0.00,,,0.00,WUHU216DAVISVP2,2013-08-05 19:26:00,
2013-08-05 15:32:00,69.3,53.4,29.95,SW,225,3.0,4.0,57,0.00,,,0.00,WUHU216DAVISVP2,2013-08-05 19:32:00,
2013-08-05 15:37:00,69.1,53.7,29.95,West,259,1.0,4.0,58,0.00,,,0.00,WUHU216DAVISVP2,2013-08-05 19:37:00,
2013-08-05 15:42:00,68.9,53.5,29.95,West,269,1.0,4.0,58,0.00,,,0.00,WUHU216DAVISVP2,2013-08-05 19:42:00,
2013-08-05 15:47:00,68.8,54.1,29.95,West,276,0.0,4.0,59,0.00,,,0.00,WUHU216DAVISVP2,2013-08-05 19:47:00,
2013-08-05 15:52:00,68.8,54.5,29.95,WSW,242,1.0,2.0,60,0.00,,,0.00,WUHU216DAVISVP2,2013-08-05 19:52:00,
2013-08-05 15:57:00,68.6,54.8,29.95,WSW,239,1.0,3.0,61,0.00,,,0.00,WUHU216DAVISVP2,2013-08-05 19:57:00,
2013-08-05 16:02:00,68.5,54.7,29.95,West,278,0.0,3.0,61,0.00,,,0.00,WUHU216DAVISVP2,2013-08-05 20:02:00,
2013-08-05 16:07:00,68.3,54.5,29.95,WSW,253,1.0,3.0,61,0.00,,,0.00,WUHU216DAVISVP2,2013-08-05 20:07:00,
2013-08-05 16:12:00,68.1,55.2,29.95,WSW,257,1.0,3.0,63,0.00,,,0.00,WUHU216DAVISVP2,2013-08-05 20:12:00,
2013-08-05 16:18:00,68.1,55.2,29.95,West,269,1.0,3.0,63,0.00,,,0.00,WUHU216DAVISVP2,2013-08-05 20:18:00,
2013-08-05 16:23:00,68.0,55.1,29.95,West,263,2.0,3.0,63,0.00,,,0.00,WUHU216DAVISVP2,2013-08-05 20:23:00,
2013-08-05 16:28:00,67.9,54.6,29.95,West,281,3.0,3.0,62,0.00,,,0.00,WUHU216DAVISVP2,2013-08-05 20:28:00,
2013-08-05 16:33:00,67.9,54.6,29.95,WSW,239,3.0,3.0,62,0.00,,,0.00,WUHU216DAVISVP2,2013-08-05 20:33:00,
2013-08-05 16:38:00,67.9,55.5,29.95,West,259,0.0,3.0,64,0.00,,,0.00,WUHU216DAVISVP2,2013-08-05 20:38:00,
2013-08-05 16:43:00,67.8,54.9,29.95,West,262,1.0,4.0,63,0.00,,,0.00,WUHU216DAVISVP2,2013-08-05 20:43:00,
2013-08-05 16:48:00,67.9,55.5,29.95,West,271,1.0,4.0,64,0.00,,,0.00,WUHU216DAVISVP2,2013-08-05 20:48:00,
2013-08-05 16:53:00,67.9,55.0,29.95,SW,228,1.0,4.0,63,0.00,,,0.00,WUHU216DAVISVP2,2013-08-05 20:53:00,
2013-08-05 16:58:00,68.0,54.7,29.94,SW,235,1.0,4.0,62,0.00,,,0.00,WUHU216DAVISVP2,2013-08-05 20:58:00,
2013-08-05 17:03:00,67.9,55.5,29.95,SW,222,1.0,3.0,64,0.00,,,0.00,WUHU216DAVISVP2,2013-08-05 21:03:00,
2013-08-05 17:08:00,68.0,55.1,29.94,SSW,210,0.0,3.0,63,0.00,,,0.00,WUHU216DAVISVP2,2013-08-05 21:08:00,
2013-08-05 17:13:00,68.1,56.1,29.93,SSW,210,0.0,2.0,65,0.00,,,0.00,WUHU216DAVISVP2,2013-08-05 21:13:00,
2013-08-05 17:19:00,68.3,56.3,29.93,SSW,210,0.0,2.0,65,0.00,,,0.00,WUHU216DAVISVP2,2013-08-05 21:19:00,
2013-08-05 17:24:00,68.3,55.0,29.93,SSW,209,0.0,2.0,62,0.00,,,0.00,WUHU216DAVISVP2,2013-08-05 21:24:00,
2013-08-05 17:29:00,68.2,55.3,29.94,SSW,211,0.0,2.0,63,0.00,,,0.00,WUHU216DAVISVP2,2013-08-05 21:29:00,
2013-08-05 17:34:00,68.0,55.1,29.94,South,191,0.0,3.0,63,0.00,,,0.00,WUHU216DAVISVP2,2013-08-05 21:34:00,
2013-08-05 17:39:00,68.0,55.5,29.94,SW,229,0.0,3.0,64,0.00,,,0.00,WUHU216DAVISVP2,2013-08-05 21:39:00,
2013-08-05 17:44:00,68.1,57.7,29.94,SW,229,0.0,3.0,69,0.00,,,0.00,WUHU216DAVISVP2,2013-08-05 21:44:00,
2013-08-05 17:49:00,68.1,55.6,29.94,SSW,212,0.0,3.0,64,0.00,,,0.00,WUHU216DAVISVP2,2013-08-05 21:49:00,
2013-08-05 17:55:00,68.2,57.0,29.94,SSW,212,0.0,1.0,67,0.00,,,0.00,WUHU216DAVISVP2,2013-08-05 21:55:00,
2013-08-05 18:00:00,68.2,55.7,29.93,SW,231,2.0,2.0,64,0.00,,,0.00,WUHU216DAVISVP2,2013-08-05 22:00:00,
2013-08-05 18:05:00,68.2,57.8,29.93,SSW,212,0.0,2.0,69,0.00,,,0.00,WUHU216DAVISVP2,2013-08-05 22:05:00,
2013-08-05 18:10:00,68.5,57.7,29.93,SSW,213,0.0,2.0,68,0.00,,,0.00,WUHU216DAVISVP2,2013-08-05 22:10:00,
2013-08-05 18:15:00,68.7,57.1,29.93,WSW,253,0.0,2.0,66,0.00,,,0.00,WUHU216DAVISVP2,2013-08-05 22:15:00,
2013-08-05 18:20:00,68.8,55.9,29.93,SW,229,0.0,1.0,63,0.00,,,0.00,WUHU216DAVISVP2,2013-08-05 22:20:00,
2013-08-05 18:25:00,68.9,56.0,29.93,SSW,203,0.0,1.0,63,0.00,,,0.00,WUHU216DAVISVP2,2013-08-05 22:25:00,
2013-08-05 18:30:00,69.0,56.1,29.93,SSW,201,1.0,2.0,63,0.00,,,0.00,WUHU216DAVISVP2,2013-08-05 22:30:00,
2013-08-05 18:35:00,69.0,56.9,29.93,SSW,203,0.0,2.0,65,0.00,,,0.00,WUHU216DAVISVP2,2013-08-05 22:35:00,
2013-08-05 18:41:00,69.0,56.1,29.93,SSW,202,0.0,2.0,63,0.00,,,0.00,WUHU216DAVISVP2,2013-08-05 22:41:00,
2013-08-05 18:46:00,69.0,56.1,29.93,SSW,203,0.0,2.0,63,0.00,,,0.00,WUHU216DAVISVP2,2013-08-05 22:46:00,
2013-08-05 18:51:00,69.1,57.4,29.93,SSW,203,0.0,2.0,66,0.00,,,0.00,WUHU216DAVISVP2,2013-08-05 22:51:00,
2013-08-05 18:56:00,68.7,55.8,29.93,SSW,212,0.0,2.0,63,0.00,,,0.00,WUHU216DAVISVP2,2013-08-05 22:56:00,
2013-08-05 19:01:00,68.3,58.7,29.93,SSW,212,0.0,2.0,71,0.00,,,0.00,WUHU216DAVISVP2,2013-08-05 23:01:00,
2013-08-05 19:06:00,68.1,57.7,29.93,SSW,211,0.0,2.0,69,0.00,,,0.00,WUHU216DAVISVP2,2013-08-05 23:06:00,
2013-08-05 19:11:00,68.0,56.4,29.93,SSW,211,0.0,2.0,66,0.00,,,0.00,WUHU216DAVISVP2,2013-08-05 23:11:00,
2013-08-05 19:17:00,68.1,58.1,29.92,SSW,211,0.0,2.0,70,0.00,,,0.00,WUHU216DAVISVP2,2013-08-05 23:17:00,
2013-08-05 19:22:00,68.0,57.2,29.92,SSW,211,0.0,2.0,68,0.00,,,0.00,WUHU216DAVISVP2,2013-08-05 23:22:00,
2013-08-05 19:27:00,67.9,57.9,29.92,SSW,211,0.0,1.0,70,0.00,,,0.00,WUHU216DAVISVP2,2013-08-05 23:27:00,
2013-08-05 19:32:00,67.7,58.1,29.92,SSW,211,0.0,1.0,71,0.00,,,0.00,WUHU216DAVISVP2,2013-08-05 23:32:00,
2013-08-05 19:37:00,67.6,57.2,29.92,SSW,209,0.0,2.0,69,0.00,,,0.00,WUHU216DAVISVP2,2013-08-05 23:37:00,
2013-08-05 19:43:00,67.4,57.8,29.92,SSW,210,0.0,2.0,71,0.00,,,0.00,WUHU216DAVISVP2,2013-08-05 23:43:00,
2013-08-05 19:48:00,67.3,58.1,29.92,SSW,209,0.0,2.0,72,0.00,,,0.00,WUHU216DAVISVP2,2013-08-05 23:48:00,
2013-08-05 19:53:00,67.2,57.6,29.91,SSW,210,0.0,2.0,71,0.00,,,0.00,WUHU216DAVISVP2,2013-08-05 23:53:00,
2013-08-05 19:58:00,67.1,57.5,29.91,SSW,210,0.0,1.0,71,0.00,,,0.00,WUHU216DAVISVP2,2013-08-05 23:58:00,
2013-08-05 20:03:00,66.9,56.6,29.91,SSW,210,0.0,1.0,69,0.00,,,0.00,WUHU216DAVISVP2,2013-08-06 00:03:00,
2013-08-05 20:08:00,67.0,56.7,29.91,SSW,210,0.0,1.0,69,0.00,,,0.00,WUHU216DAVISVP2,2013-08-06 00:08:00,
2013-08-05 20:13:00,67.0,57.1,29.91,SSW,210,0.0,0.0,70,0.00,,,0.00,WUHU216DAVISVP2,2013-08-06 00:13:00,
2013-08-05 20:19:00,66.9,56.2,29.91,SSW,210,0.0,1.0,68,0.00,,,0.00,WUHU216DAVISVP2,2013-08-06 00:19:00,
2013-08-05 20:24:00,66.9,56.2,29.91,SSW,210,0.0,1.0,68,0.00,,,0.00,WUHU216DAVISVP2,2013-08-06 00:24:00,
2013-08-05 20:29:00,66.8,56.5,29.91,SSW,209,0.0,1.0,69,0.00,,,0.00,WUHU216DAVISVP2,2013-08-06 00:29:00,
2013-08-05 20:34:00,66.7,56.4,29.91,SSW,210,0.0,1.0,69,0.00,,,0.00,WUHU216DAVISVP2,2013-08-06 00:34:00,
2013-08-05 20:39:00,66.5,55.8,29.91,SSW,208,1.0,1.0,68,0.00,,,0.00,WUHU216DAVISVP2,2013-08-06 00:39:00,
2013-08-05 20:44:00,66.4,55.7,29.91,SSW,208,0.0,1.0,68,0.00,,,0.00,WUHU216DAVISVP2,2013-08-06 00:44:00,
2013-08-05 20:49:00,66.3,55.6,29.90,SSW,208,0.0,1.0,68,0.00,,,0.00,WUHU216DAVISVP2,2013-08-06 00:49:00,
2013-08-05 20:54:00,66.3,55.6,29.90,SSW,208,0.0,1.0,68,0.00,,,0.00,WUHU216DAVISVP2,2013-08-06 00:54:00,
2013-08-05 21:00:00,66.2,55.1,29.90,SSE,153,0.0,1.0,67,0.00,,,0.00,WUHU216DAVISVP2,2013-08-06 01:00:00,
2013-08-05 21:05:00,66.1,55.0,29.90,SW,214,0.0,1.0,67,0.00,,,0.00,WUHU216DAVISVP2,2013-08-06 01:05:00,
2013-08-05 21:10:00,66.1,55.0,29.90,SSW,213,0.0,1.0,67,0.00,,,0.00,WUHU216DAVISVP2,2013-08-06 01:10:00,
2013-08-05 21:15:00,66.0,55.3,29.90,SW,214,0.0,1.0,68,0.00,,,0.00,WUHU216DAVISVP2,2013-08-06 01:15:00,
2013-08-05 21:20:00,66.0,55.3,29.90,SSW,213,0.0,1.0,68,0.00,,,0.00,WUHU216DAVISVP2,2013-08-06 01:20:00,
2013-08-05 21:25:00,65.9,54.8,29.90,SW,214,0.0,1.0,67,0.00,,,0.00,WUHU216DAVISVP2,2013-08-06 01:25:00,
2013-08-05 21:31:00,65.9,55.2,29.90,SW,214,0.0,1.0,68,0.00,,,0.00,WUHU216DAVISVP2,2013-08-06 01:31:00,
2013-08-05 21:36:00,65.8,55.1,29.90,SSW,213,0.0,1.0,68,0.00,,,0.00,WUHU216DAVISVP2,2013-08-06 01:36:00,
2013-08-05 21:41:00,65.7,55.8,29.90,SSW,213,0.0,1.0,70,0.00,,,0.00,WUHU216DAVISVP2,2013-08-06 01:41:00,
2013-08-05 21:46:00,65.6,55.3,29.90,SSW,212,0.0,1.0,69,0.00,,,0.00,WUHU216DAVISVP2,2013-08-06 01:46:00,
2013-08-05 21:51:00,65.4,55.1,29.90,SSW,212,0.0,0.0,69,0.00,,,0.00,WUHU216DAVISVP2,2013-08-06 01:51:00,
2013-08-05 21:56:00,65.3,55.8,29.90,SSW,212,0.0,0.0,71,0.00,,,0.00,WUHU216DAVISVP2,2013-08-06 01:56:00,
2013-08-05 22:01:00,65.2,55.7,29.90,SSW,212,0.0,0.0,71,0.00,,,0.00,WUHU216DAVISVP2,2013-08-06 02:01:00,
2013-08-05 22:06:00,65.0,55.5,29.90,SSW,212,0.0,0.0,71,0.00,,,0.00,WUHU216DAVISVP2,2013-08-06 02:06:00,
2013-08-05 22:11:00,64.9,55.8,29.90,SSW,212,0.0,0.0,72,0.00,,,0.00,WUHU216DAVISVP2,2013-08-06 02:11:00,
2013-08-05 22:16:00,64.8,55.7,29.90,SSW,212,0.0,0.0,72,0.00,,,0.00,WUHU216DAVISVP2,2013-08-06 02:16:00,
2013-08-05 22:22:00,64.7,56.0,29.89,SSW,212,0.0,0.0,73,0.00,,,0.00,WUHU216DAVISVP2,2013-08-06 02:22:00,
2013-08-05 22:27:00,64.6,56.3,29.89,SSW,213,0.0,0.0,74,0.00,,,0.00,WUHU216DAVISVP2,2013-08-06 02:27:00,
2013-08-05 22:32:00,64.4,56.4,29.89,SSW,213,0.0,0.0,75,0.00,,,0.00,WUHU216DAVISVP2,2013-08-06 02:32:00,
2013-08-05 22:37:00,64.4,56.4,29.89,SSW,212,0.0,0.0,75,0.00,,,0.00,WUHU216DAVISVP2,2013-08-06 02:37:00,
2013-08-05 22:42:00,64.3,56.3,29.89,SSW,212,0.0,0.0,75,0.00,,,0.00,WUHU216DAVISVP2,2013-08-06 02:42:00,
2013-08-05 22:47:00,64.3,56.7,29.89,SSW,213,0.0,0.0,76,0.00,,,0.00,WUHU216DAVISVP2,2013-08-06 02:47:00,
2013-08-05 22:52:00,64.4,56.8,29.89,SSW,213,0.0,0.0,76,0.00,,,0.00,WUHU216DAVISVP2,2013-08-06 02:52:00,
2013-08-05 22:57:00,64.4,56.8,29.89,SSW,212,0.0,0.0,76,0.00,,,0.00,WUHU216DAVISVP2,2013-08-06 02:57:00,
2013-08-05 23:02:00,64.4,57.1,29.89,SSW,212,0.0,0.0,77,0.00,,,0.00,WUHU216DAVISVP2,2013-08-06 03:02:00,
2013-08-05 23:07:00,64.4,57.1,29.89,SSW,212,0.0,0.0,77,0.00,,,0.00,WUHU216DAVISVP2,2013-08-06 03:07:00,
2013-08-05 23:12:00,64.4,57.5,29.89,SSW,212,0.0,0.0,78,0.00,,,0.00,WUHU216DAVISVP2,2013-08-06 03:12:00,
2013-08-05 23:17:00,64.4,57.5,29.89,SSW,213,0.0,0.0,78,0.00,,,0.00,WUHU216DAVISVP2,2013-08-06 03:17:00,
2013-08-05 23:22:00,64.4,57.7,29.89,SSW,213,0.0,0.0,79,0.00,,,0.00,WUHU216DAVISVP2,2013-08-06 03:22:00,
2013-08-05 23:28:00,64.4,57.4,29.89,SSW,212,0.0,0.0,78,0.00,,,0.00,WUHU216DAVISVP2,2013-08-06 03:28:00,
2013-08-05 23:33:00,64.4,57.7,29.89,SSW,213,0.0,0.0,79,0.00,,,0.00,WUHU216DAVISVP2,2013-08-06 03:33:00,
2013-08-05 23:38:00,64.4,57.7,29.89,SSW,212,0.0,0.0,79,0.00,,,0.00,WUHU216DAVISVP2,2013-08-06 03:38:00,
2013-08-05 23:43:00,64.3,57.7,29.89,SSW,212,0.0,0.0,79,0.00,,,0.00,WUHU216DAVISVP2,2013-08-06 03:43:00,
2013-08-05 23:48:00,64.3,57.7,29.89,SSW,213,0.0,0.0,79,0.00,,,0.00,WUHU216DAVISVP2,2013-08-06 03:48:00,
2013-08-05 23:53:00,64.3,58.1,29.89,SSW,212,0.0,0.0,80,0.00,,,0.00,WUHU216DAVISVP2,2013-08-06 03:53:00,
2013-08-05 23:59:00,64.2,58.0,29.89,SSW,212,0.0,0.0,80,0.00,,,0.00,WUHU216DAVISVP2,2013-08-06 03:59:00,